Regional Weather Roundup
Issued by NWS

Home | Current Version | Previous Version | Text Only | Print | Product List | Glossary On
Versions: 1 2 3 4 5 6 7 8 9 10 11 12 13 14 15 16 17 18 19 20 21 22 23 24 25 26 27 28 29 30 31 32 33 34 35 36 37 38 39 40 41 42 43 44 45 46 47 48 49 50
000
ASUS43 KMKX 231321
RWRWI

WISCONSIN REGIONAL WEATHER ROUNDUP
NATIONAL WEATHER SERVICE MILWAUKEE/SULLIVAN WI
800 AM CDT TUE SEP 23 2014

NOTE: "FAIR" INDICATES FEW OR NO CLOUDS BELOW 12,000 FEET WITH NO
SIGNIFICANT WEATHER AND/OR OBSTRUCTIONS TO VISIBILITY.

WIZ001-002-006>008-014>016-023>028-231400-
NORTHWEST WISCONSIN

CITY           SKY/WX    TMP DP  RH WIND       PRES   REMARKS
SUPERIOR ARPT  CLEAR     47  47 100 CALM      30.20S
ASHLAND        SUNNY     50  48  93 S5        30.22R
HAYWARD        SUNNY     44  42  93 CALM      30.24R
SIREN          CLEAR     50  49  94 CALM      30.22S
CUMBERLAND     SUNNY     45  45 100 CALM      30.24R
RICE LAKE      SUNNY     45  44  97 CALM      30.25S FOG
CHETEK         SUNNY     47  47 100 E3        30.24S
LADYSMITH      SUNNY     47  46  97 CALM      30.27S
EAU CLAIRE     SUNNY     47  45  93 CALM      30.25R
MENOMONIE      FOG       47  47  99 E3        30.25S VSB 1/2
NEW RICHMOND   CLEAR     49  49  97 SE3       30.23S
OSCEOLA        CLEAR     49  49 100 CALM      30.25R
$$

WIZ003>005-009-010-017-018-231400-
NORTH CENTRAL WISCONSIN

CITY           SKY/WX    TMP DP  RH WIND       PRES   REMARKS
MANITOWISH WTR SUNNY     44  44 100 CALM      30.25R
ARBOR VITAE    SUNNY     47  45  93 CALM      30.26R
WOODRUFF       SUNNY     47  45  93 CALM      30.26R
RHINELANDER    SUNNY     49  49 100 W3        30.27S
EAGLE RIVER    MOSUNNY   44  44 100 CALM      30.25S FOG
LAND O LAKES   FOG       44  44 100 CALM      30.26R VSB 3/4
PHILLIPS       SUNNY     46  46  99 CALM      30.25S
TOMAHAWK       SUNNY     43  42  97 CALM      30.28R FOG
MEDFORD        SUNNY     46  46 100 CALM      30.27R FOG
MERRILL          N/A     41  41 100 NE3       30.27S FOG
$$

WIZ029-030-035-036-043>047-231400-
CENTRAL WISCONSIN

CITY           SKY/WX    TMP DP  RH WIND       PRES   REMARKS
WAUSAU         SUNNY     47  47 100 CALM      30.26S
MOSINEE        SUNNY     45  45 100 CALM      30.28S
MARSHFIELD     SUNNY     49  48  97 CALM      30.27R FOG
STEVENS POINT  PTSUNNY   42  42 100 CALM      30.28S FOG
WAUPACA        SUNNY     49  48  95 CALM      30.28S
WAUTOMA        SUNNY     44  43  97 CALM      30.29S
WISC RAPIDS    SUNNY     47  46  97 CALM      30.29R
CAMP DOUGLAS   SUNNY     48  48 100 S6        30.28R
$$

WIZ011>013-019>022-031-037>040-048>050-231400-
NORTHEAST WISCONSIN

CITY           SKY/WX    TMP DP  RH WIND       PRES   REMARKS
ANTIGO         SUNNY     45  45 100 CALM      30.28R
SHAWANO        SUNNY     50  49  95 CALM      30.28R
OCONTO         SUNNY     51  51 100 CALM      30.26R
STURGEON BAY   SUNNY     55  52  88 W9        30.27R
GREEN BAY      SUNNY     52  51  97 SW5       30.28R
MANITOWOC      SUNNY     55  51  86 W7        30.28R
APPLETON       SUNNY     52  48  87 VRB3      30.29R
CLINTONVILLE   SUNNY     46  46 100 CALM      30.27S
OSHKOSH        SUNNY     51  49  92 CALM      30.28R
$$

WIZ032>034-041-042-053>061-231400-
SOUTHWEST WISCONSIN

CITY           SKY/WX    TMP DP  RH WIND       PRES   REMARKS
LA CROSSE      FOG       50  49  96 SE6       30.27S VSB 1/4
SPARTA         MOSUNNY   41  41 100 CALM      30.29R
VIROQUA        SUNNY     53  48  82 S3        30.28R
BOSCOBEL       FOG       48  46  93 CALM      30.31R VSB<1/4
PRAIRIE DU CHI SUNNY     47  46  95 E3        30.30R
PLATTEVILLE    SUNNY     51  47  88 CALM      30.31R
$$

WIZ056-057-062-063-064-067-068-231400-
SOUTH CENTRAL WISCONSIN

CITY           SKY/WX    TMP DP  RH WIND       PRES   REMARKS
REEDSBURG      SUNNY     45  44  95 CALM      30.29S
BARABOO/DELLS  SUNNY     53  48  84 CALM      30.29R
LONE ROCK      PTSUNNY   49  45  86 CALM      30.31R
MINERAL POINT  SUNNY     52  46  82 CALM      30.30R
MADISON        SUNNY     50  46  86 CALM      30.30R
MIDDLETON      SUNNY     49  48  99 CALM      30.30S
WATERTOWN      SUNNY     48  48  99 CALM      30.30R
MONROE         SUNNY     50  46  87 SW6       30.30S
JANESVILLE     SUNNY     50  46  87 CALM      30.30S
$$

WIZ051-052-058>065-066-070>072-231400-
SOUTHEAST WISCONSIN

CITY           SKY/WX    TMP DP  RH WIND       PRES   REMARKS
MILWAUKEE      SUNNY     56  46  69 W3        30.30S
WAUKESHA       SUNNY     48  46  93 MISG      30.32R
MILWAUKEE/TIMM SUNNY     50  46  87 CALM      30.31R
RACINE         SUNNY     54  45  71 W7        30.32R
BURLINGTON     SUNNY     45  45 100 CALM      30.31S
KENOSHA        SUNNY     51  48  89 W6        30.31R
FOND DU LAC    SUNNY     51  49  92 S3        30.29R
SHEBOYGAN      SUNNY     50  48  93 CALM      30.29R
WEST BEND      SUNNY     46  45  93 CALM      30.29S
JUNEAU         SUNNY     49  47  93 CALM      30.31R
$$

LSZ147-162-231400-
LAKE SUPERIOR

STATION/POSITION TIME  TEMP    WIND        PRES    WAVE
                       AIR SEA DIR/SP/G            HT/PER
                 (UTC) (F)     (DEG/KT/KT) (MB)    (FT/S)
W MID LAKE BUOY  1250   50 48  220/  8/ 10 1022.3R   1/ 3
DEVILS ISLAND    1300   57     220/ 10/ 12 1022.7R
PORT WING        1200   50     150/  2/  4 1022.7R
SAXON HARBOR     1200   53     180/  6/  9 1023.0R
$$

LMZ867-665-643>646-231400-
LAKE MICHIGAN

STATION/POSITION TIME  TEMP    WIND        PRES    WAVE
                       AIR SEA DIR/SP/G            HT/PER
                 (UTC) (F)     (DEG/KT/KT) (MB)    (FT/S)
CHAMBERS ISLAND  1200   55     170/  3/  6 1023.7R
S GREEN BAY BUOY 1200   58                 1025.1R
N MID LAKE BUOY  1250   57 57  250/ 10/ 12 1023.5R   2/ 5
NORTHPORT PIER   1201   57     260/  6/ 13 1023.0R
SISTER BAY       1112          280/  8/ 10   N/A
ALGOMA LAKESHORE 1224          310/  5/  8   N/A
KEWAUNEE LAKESHO 1300   54     290/  7/  8 1023.6R
SHEBOYGAN LAKESH 1300   55 54  260/ 11/ 11 1025.8R
PORT WASHINGTON  1210   54     280/  7/ 10 1025.7R
ATWATER BUOY     1200   56     250/ 10/ 12 1026.3R
S MID LAKE BUOY  1250   60 62  240/ 10/ 12 1026.4R   2/ 4
KENOSHA   LAKESH 1300   56     250/  8/ 11 1026.1R
$$

TC  - TEMPERATURE IN CELSIUS
VSB - VISIBILITY IN STATUTE MILES
WCI - WIND CHILL INDEX
HX  - HEAT INDEX




USA.gov is the U.S. government's official web portal to all federal, state and local government web resources and services.